Theta_e
341 340 342 342 345 346 349 350 351 350 351 352 352 353 352 352 351 351 351 351 351 351 351 351 350 350 350 349 346 346 346 346 346 345 344 343 343 341 341 341 342 343 344 344 344 346 346 346 347 346 345 345 345 346 348 348 348 348 347 347 347 347 346 346 345 344 344 344 346 347 346 347 346 346 345 343 342 342 339 339 340 338 339 341 344
341 341 341 344 345 347 349 350 349 350 351 351 351 352 352 351 351 351 351 351 351 351 350 350 350 350 350 348 347 347 346 346 345 344 343 342 342 341 340 340 341 342 342 343 344 344 345 345 345 345 345 345 344 345 346 347 347 347 346 346 346 345 344 345 345 344 343 341 341 343 342 343 343 344 343 342 342 341 338 338 338 338 339 342 342
343 342 343 345 345 347 349 348 349 349 350 351 352 351 351 351 351 350 350 350 350 351 350 350 349 349 349 349 348 347 346 345 345 345 344 343 342 340 339 340 341 341 341 341 342 343 343 344 343 344 345 344 344 346 346 346 346 345 345 345 344 344 344 344 344 342 342 341 340 340 340 340 341 342 342 341 341 340 338 338 338 338 337 341 340
340 341 343 344 343 346 348 348 347 346 348 351 351 351 351 351 350 350 350 350 350 350 350 350 350 350 349 348 347 346 345 344 345 344 343 343 343 340 338 339 340 340 340 341 341 342 342 342 341 343 343 343 344 345 346 345 345 345 345 344 344 344 344 343 341 341 340 340 340 338 338 338 338 340 341 341 340 339 337 337 338 339 339 340 340
341 341 343 344 346 346 347 346 346 346 348 350 351 351 352 351 351 350 350 349 349 349 349 348 348 348 348 347 345 345 344 344 345 344 343 342 342 339 337 339 340 340 340 341 341 340 340 341 341 342 343 344 345 345 345 344 344 344 344 344 344 343 342 340 339 339 338 337 338 338 337 336 336 338 339 339 338 337 336 337 337 337 337 338 339
342 342 343 344 345 347 347 345 346 347 348 350 350 351 351 351 350 350 349 349 348 348 348 348 348 347 348 347 345 344 344 344 344 344 344 343 342 339 337 339 340 340 340 341 340 340 340 339 340 341 342 343 344 344 344 344 344 343 343 342 342 341 340 340 338 337 336 336 336 336 336 335 334 334 339 339 338 336 336 336 337 337 337 337 337
342 343 344 344 346 347 346 348 347 347 349 351 350 351 351 350 349 349 349 349 348 348 347 347 347 347 347 345 343 344 344 343 344 344 343 343 341 338 336 338 340 340 341 341 341 340 340 340 339 340 342 343 343 343 343 342 342 342 341 341 340 340 339 337 336 336 335 335 334 334 334 335 333 333 338 338 338 336 336 337 337 337 338 337 337
345 345 345 346 347 347 345 349 350 350 351 351 351 351 351 350 349 349 348 348 348 347 347 347 347 347 347 344 343 344 343 343 343 343 342 342 341 337 335 337 339 340 340 340 341 341 340 340 339 340 341 342 342 343 342 342 342 340 340 340 339 338 337 336 335 334 334 334 334 334 334 333 333 333 336 336 337 337 337 336 337 337 336 336 335
345 346 346 347 348 342 345 346 348 349 348 350 350 350 350 349 348 348 348 348 348 348 347 347 346 346 346 344 344 344 343 343 343 342 342 340 340 336 335 336 338 338 339 340 340 340 339 339 339 340 340 342 341 342 341 341 341 340 340 339 338 337 336 334 333 332 333 334 333 332 332 332 331 332 336 336 336 337 336 334 335 336 335 335 334
346 347 347 347 348 341 344 346 348 348 348 348 349 349 349 348 348 348 348 347 347 347 346 346 346 347 345 344 345 345 343 343 343 342 340 340 339 335 334 336 337 338 338 338 339 339 339 338 337 338 340 341 341 340 341 339 339 339 340 339 337 336 335 333 332 332 333 333 333 332 334 334 332 332 335 336 336 335 336 334 334 334 333 334 333
347 346 347 346 346 341 345 348 347 348 348 348 347 349 349 348 348 348 348 347 347 347 347 346 346 347 346 345 345 345 343 343 342 340 340 339 339 335 333 335 337 337 337 338 339 338 338 338 337 337 339 340 340 339 339 339 339 339 338 337 336 334 333 331 330 332 333 333 333 333 333 334 332 332 337 336 335 335 334 334 334 334 333 333 334
346 347 346 346 342 338 345 346 346 348 348 348 348 349 349 348 348 349 348 348 347 347 347 347 346 346 346 345 345 344 343 342 342 340 339 338 337 335 334 335 337 337 336 336 337 337 337 337 337 338 338 338 338 339 339 338 338 337 336 335 333 331 329 327 329 330 332 332 333 334 334 331 331 332 336 336 336 334 333 333 333 334 333 333 334
346 347 346 345 344 338 341 346 344 345 347 348 348 349 349 349 349 348 348 348 347 347 347 346 346 346 346 345 345 344 342 342 342 341 340 338 335 333 333 335 337 337 336 336 336 337 337 336 336 337 338 338 338 338 337 337 336 334 333 331 329 327 325 324 326 328 330 333 333 334 334 332 332 335 335 336 336 334 333 333 334 333 333 333 333
345 346 346 345 344 340 336 341 343 346 348 347 349 349 348 348 348 348 348 347 348 347 347 346 346 346 346 345 344 344 342 342 342 341 339 338 335 332 332 334 337 336 336 336 336 336 336 336 336 336 336 335 335 336 336 334 333 332 330 329 328 326 323 322 324 327 328 331 333 335 332 331 331 334 335 335 336 336 334 334 334 334 334 333 333
344 345 345 346 344 344 339 337 340 342 344 346 346 348 347 347 348 348 347 347 347 347 347 346 346 346 345 344 344 343 342 342 342 341 339 338 335 331 331 333 335 336 336 335 335 335 334 334 333 332 332 333 333 334 333 331 331 329 328 327 325 323 322 324 325 326 327 328 331 334 333 332 337 339 338 337 338 338 337 336 335 336 336 337 335
346 346 346 345 345 343 343 340 336 335 340 343 343 345 347 347 347 347 347 347 347 346 346 346 346 345 344 344 344 343 342 342 341 340 339 336 332 330 330 332 333 333 334 334 333 332 331 328 326 325 327 330 331 331 329 328 327 326 325 324 323 321 320 322 325 326 326 327 329 333 333 332 337 338 338 339 338 338 338 337 338 338 337 336 336
345 345 345 345 345 344 344 343 339 332 332 336 339 339 343 346 345 347 346 346 346 347 346 346 345 344 344 343 344 343 342 341 341 339 337 334 330 328 329 331 331 331 331 331 331 330 327 324 322 323 324 326 327 327 326 325 324 323 323 322 321 319 318 319 323 325 327 328 330 332 331 331 333 336 338 338 338 339 338 337 338 337 337 337 336
343 344 344 344 344 345 345 345 342 341 343 337 331 335 340 343 344 343 344 344 345 346 345 346 345 344 343 342 340 341 341 341 340 339 336 334 331 328 328 329 328 328 329 330 329 328 325 323 321 322 323 323 323 323 323 323 323 321 320 319 319 318 318 318 322 324 326 327 329 330 330 332 333 333 336 337 337 337 336 337 336 336 336 336 336
341 343 343 344 342 345 346 345 342 344 344 344 343 340 332 338 340 340 340 342 343 343 343 342 341 341 340 338 336 335 334 335 336 336 336 333 332 330 327 327 326 326 326 327 329 328 326 324 323 323 323 321 321 321 322 321 321 320 319 317 315 315 315 319 321 323 325 326 327 327 328 330 330 331 332 335 334 334 334 334 335 334 335 336 335
331 335 335 330 334 338 342 344 345 345 343 343 343 342 334 332 336 336 337 339 340 341 339 337 335 334 333 331 329 331 330 331 327 333 331 333 330 329 330 328 328 327 326 325 325 326 326 325 324 324 323 322 321 321 320 320 319 318 317 315 314 314 318 320 321 322 324 325 326 326 328 329 331 331 332 332 332 332 332 332 331 332 333 333 334
325 326 327 325 327 332 333 337 340 343 343 343 343 342 340 331 332 330 333 335 337 336 336 327 325 324 325 323 326 336 336 336 336 335 326 333 325 326 329 329 328 326 324 323 322 322 323 322 321 320 318 317 316 316 317 318 317 316 314 313 312 315 317 318 320 321 323 325 326 326 328 329 328 330 330 331 330 330 329 329 330 329 329 330 330
327 325 323 322 324 326 326 330 333 336 343 344 343 341 339 337 342 340 339 335 330 328 333 336 330 333 323 332 336 335 336 335 334 331 334 332 329 324 327 330 328 327 325 323 322 322 322 321 320 318 316 312 309 308 309 311 312 312 311 311 313 314 315 316 317 319 321 325 328 328 329 330 330 332 332 331 331 330 329 328 329 328 328 328 327
325 324 322 320 321 322 322 324 327 328 333 342 342 341 339 341 340 339 338 332 334 336 337 334 335 335 337 336 334 335 334 333 333 330 330 324 329 324 327 329 330 327 325 323 322 322 321 321 319 316 313 309 307 307 307 308 308 308 308 310 311 311 313 314 315 316 318 321 325 327 329 330 331 333 332 332 331 330 329 329 328 329 329 328 327
325 324 322 318 320 321 320 321 323 324 329 337 341 340 340 341 341 340 339 338 338 337 337 335 335 336 336 336 336 335 334 332 325 323 327 331 328 322 323 323 323 321 320 321 322 322 320 318 315 313 310 308 307 307 307 307 307 308 308 307 307 308 309 310 311 313 316 318 320 323 328 330 330 331 331 332 331 331 330 329 329 329 329 328 329
319 316 317 317 318 319 320 320 321 322 325 333 337 339 340 339 340 340 338 337 337 337 336 336 335 336 336 336 336 334 333 331 330 331 332 331 332 331 330 327 324 321 316 317 316 314 313 312 311 310 309 309 308 307 307 306 306 305 304 303 303 303 304 305 307 309 312 315 317 319 325 328 330 331 331 331 331 330 330 330 329 329 329 328 329
311 317 318 316 316 316 316 317 319 323 323 328 332 336 338 339 338 338 337 336 337 336 335 334 334 336 336 335 334 333 332 331 331 332 331 332 331 330 329 325 323 321 319 317 316 315 313 312 311 310 309 308 307 306 306 305 303 302 301 300 299 299 299 300 302 305 308 311 314 317 321 326 327 328 329 330 329 329 329 330 329 329 328 328 327
312 318 316 315 314 314 314 316 319 321 323 324 327 333 338 339 340 338 336 335 335 334 334 334 334 335 336 334 334 333 332 332 332 332 331 333 330 330 328 325 322 321 319 317 316 315 313 312 310 309 308 307 306 305 304 303 302 300 299 298 297 296 296 296 298 299 303 306 309 314 318 322 324 326 327 327 328 328 329 329 328 327 327 328 326
311 314 312 314 313 314 313 315 318 320 324 322 326 331 337 338 338 335 336 333 334 334 334 334 334 335 335 334 334 334 332 331 331 332 332 332 330 330 329 326 323 321 320 318 316 315 313 312 311 310 308 306 305 304 303 302 301 300 299 298 297 295 295 295 295 296 297 301 305 309 315 318 320 322 325 326 327 327 327 327 329 328 326 325 326
312 312 312 311 313 313 313 316 318 319 321 321 325 331 334 337 337 336 337 329 335 334 334 334 333 334 334 333 334 333 332 331 330 331 332 331 330 329 328 326 325 323 320 319 317 315 313 311 310 309 308 306 305 304 303 302 300 299 297 297 296 295 295 294 294 294 294 296 299 303 309 314 316 318 320 322 324 324 324 325 326 326 325 324 323
312 312 309 310 310 309 313 317 318 320 321 322 325 329 332 335 336 336 338 332 335 334 333 332 332 333 333 334 334 333 332 331 330 331 332 330 330 329 328 326 324 323 321 318 319 316 314 311 309 308 307 306 304 304 302 300 298 298 297 296 295 294 294 294 293 293 293 293 294 297 302 308 313 316 317 319 321 322 322 323 322 322 323 322 321
308 309 308 310 310 310 314 315 316 317 320 322 326 329 332 333 334 333 333 334 334 333 331 331 331 331 331 332 334 334 332 331 330 329 329 329 329 328 327 326 324 322 322 320 320 317 315 312 310 308 307 305 304 303 301 298 297 296 296 295 295 294 294 293 293 293 292 292 293 294 295 300 306 311 315 318 318 318 320 320 320 320 321 321 320
307 308 309 309 309 311 314 313 314 316 318 321 326 329 331 331 329 329 329 331 331 332 332 330 328 330 328 329 332 333 332 331 329 327 327 327 325 325 324 324 323 323 322 321 320 318 316 315 312 309 307 305 304 302 301 298 296 296 296 294 294 294 293 293 292 292 292 292 292 292 293 294 298 304 309 314 316 316 316 317 318 318 319 319 319
307 308 308 307 310 312 313 314 316 315 316 320 326 329 330 328 326 326 325 326 329 328 327 326 326 327 328 328 328 330 330 329 328 327 325 326 325 322 322 322 321 321 319 318 316 315 314 313 309 308 305 304 303 301 300 297 295 295 294 294 294 293 293 292 292 291 291 291 291 291 292 292 293 295 300 307 312 313 313 314 314 316 318 318 318
307 307 306 309 311 313 313 315 316 316 316 320 326 327 326 326 324 325 323 323 324 327 326 325 323 324 326 328 327 328 328 328 327 325 324 322 322 320 318 318 318 318 316 315 314 314 312 311 307 305 304 302 299 298 296 295 295 295 294 294 293 292 292 291 291 290 291 290 290 291 291 291 291 292 294 298 304 308 311 311 311 312 312 313 315
306 306 308 310 311 313 313 315 317 317 317 319 324 324 321 320 321 321 321 321 321 321 322 323 323 323 326 326 326 324 326 326 326 325 323 321 319 318 316 315 315 315 314 314 313 313 312 309 307 304 304 300 298 296 295 294 294 293 293 292 291 291 291 290 290 290 290 290 290 290 290 290 291 291 292 292 296 300 305 308 309 308 309 310 311
306 308 308 309 311 311 313 315 316 316 318 320 323 321 320 319 319 317 318 318 319 319 320 322 322 323 323 322 323 322 322 323 325 324 322 320 317 315 315 313 312 312 312 312 312 311 310 308 306 304 300 298 296 294 295 293 292 291 291 290 290 290 290 289 289 289 289 289 289 289 289 290 290 290 290 290 291 294 298 301 304 305 305 306 308
306 307 309 310 311 311 312 314 315 317 318 320 318 316 315 315 315 316 316 317 317 317 316 316 318 319 321 321 321 320 320 319 319 322 322 319 316 312 311 311 310 310 310 310 310 310 308 306 305 303 301 296 295 293 292 290 290 289 289 289 289 289 289 289 289 288 289 288 288 288 288 288 289 289 289 289 289 290 292 295 297 299 301 303 305
306 308 309 310 310 310 312 314 316 317 317 316 316 314 312 311 312 312 311 313 312 313 313 313 313 314 315 317 317 316 316 316 315 315 317 318 315 310 308 308 307 308 307 306 306 308 307 304 301 301 298 295 293 292 290 289 290 289 289 288 288 288 287 288 288 288 288 288 287 287 287 287 288 288 288 288 289 289 289 289 291 292 296 299 303
306 307 308 309 310 310 311 312 313 312 313 313 311 310 309 309 309 310 310 308 308 309 310 310 311 312 310 310 311 311 311 313 313 312 310 309 308 305 304 304 304 303 304 303 304 305 303 302 300 297 297 295 293 292 291 290 290 289 288 288 288 287 287 287 287 287 287 288 287 287 287 287 287 287 287 288 288 288 288 288 287 287 289 295 299
306 307 308 309 309 309 310 310 311 311 311 310 310 309 310 308 306 306 306 305 305 306 305 306 307 309 309 310 310 309 309 309 309 309 307 306 304 302 301 301 301 302 302 302 302 302 301 300 299 295 293 293 293 291 291 290 289 288 288 287 288 288 287 287 286 286 286 286 287 287 286 286 287 286 286 287 287 287 286 286 286 286 286 288 293
305 307 307 308 309 309 309 310 310 311 311 309 309 310 310 307 307 308 307 305 304 303 303 302 302 304 306 308 309 308 307 307 306 306 305 303 303 300 300 300 301 301 303 303 303 302 301 300 296 295 292 290 290 291 291 291 289 287 288 288 287 288 287 286 285 286 285 286 286 286 286 286 286 285 286 286 286 286 286 286 285 285 285 286 286
304 306 306 307 308 309 309 311 309 310 311 311 309 310 312 311 310 307 302 301 301 303 302 301 300 301 303 305 307 307 306 305 304 304 303 303 300 299 299 299 299 300 301 302 301 299 298 295 294 292 293 291 289 291 292 293 289 287 285 286 287 289 290 287 286 285 285 285 285 285 286 285 285 285 285 285 285 285 285 285 285 284 285 285 285
305 306 306 307 308 308 310 310 309 309 309 309 311 311 306 305 305 302 301 295 296 298 298 298 299 300 300 301 303 304 304 303 302 301 301 300 300 299 298 298 298 297 298 299 299 297 296 295 295 293 291 292 291 292 291 292 290 289 289 286 284 285 287 286 288 286 284 285 285 285 285 284 284 285 285 285 285 284 284 284 284 284 284 284 284
304 305 306 306 307 308 309 310 308 309 309 307 307 302 299 299 299 298 296 296 295 296 297 297 296 296 296 297 299 301 302 301 300 299 298 298 298 298 296 296 296 298 299 298 297 296 296 296 296 295 293 289 290 290 290 289 290 289 288 290 286 288 284 284 284 285 285 284 284 284 284 284 284 284 285 285 284 284 284 284 283 283 283 283 283
303 304 305 306 307 307 309 309 308 308 308 304 299 298 296 296 294 295 296 295 295 295 297 296 296 295 294 296 296 298 299 298 298 297 296 296 296 295 295 295 295 297 298 297 297 296 296 296 296 294 293 292 290 290 289 289 292 289 293 288 287 287 288 286 285 283 286 284 283 284 284 284 284 284 284 284 284 284 283 283 283 283 283 283 283
303 304 306 306 307 307 308 308 307 307 306 301 298 298 298 296 297 299 299 299 296 295 298 296 294 295 297 293 293 295 296 296 295 295 295 294 293 293 294 294 294 295 297 298 297 297 296 295 295 296 295 295 293 290 289 287 287 287 287 290 295 294 288 285 286 282 284 284 284 283 282 283 283 283 283 283 283 283 283 283 283 283 282 282 282
302 305 305 306 307 307 308 308 307 306 302 300 298 299 300 302 303 305 306 304 303 300 300 298 298 295 292 292 291 292 294 294 292 292 292 292 292 291 292 293 294 295 295 296 295 295 295 296 296 296 296 295 295 293 290 288 286 286 286 286 287 287 291 285 285 282 280 282 284 283 283 283 282 283 283 283 283 283 283 283 282 282 282 282 282
302 304 305 306 306 306 307 307 306 304 300 300 300 301 302 302 302 303 303 304 305 303 298 295 292 291 291 291 291 290 291 291 291 290 290 290 290 289 290 291 293 293 293 294 295 294 294 293 294 295 295 294 296 294 290 287 290 285 285 285 284 285 287 287 289 287 284 280 280 282 283 282 282 282 283 283 283 283 282 282 282 282 281 281 281
302 303 304 305 306 306 306 306 305 303 300 298 300 301 301 301 302 302 302 303 301 298 295 292 290 290 290 289 290 289 289 289 289 289 289 288 288 288 289 290 291 291 292 293 292 291 292 291 290 290 292 293 295 294 290 288 289 285 283 283 285 285 285 285 284 287 284 282 280 280 281 282 283 283 282 282 282 283 283 282 282 282 282 281 281
302 304 304 305 306 306 305 305 304 302 300 300 300 299 300 300 301 303 303 298 292 291 291 290 289 289 288 288 288 288 288 287 287 288 288 288 287 287 288 290 290 290 290 290 290 290 290 291 291 292 292 292 290 291 291 289 288 286 287 286 286 284 285 285 285 284 283 286 282 281 282 281 281 282 283 283 282 282 282 282 281 281 281 281 281
301 303 304 304 305 305 305 304 303 301 299 298 300 300 301 301 303 302 301 296 295 293 290 288 288 288 288 287 288 288 287 287 286 286 287 287 286 287 288 289 289 289 288 288 288 289 289 289 289 289 290 289 288 289 288 287 286 285 285 286 286 286 286 285 284 285 285 281 281 281 282 282 282 281 282 282 283 282 282 281 281 281 281 281 281
Wind_Speed
5 4 4 4 2 1 9 10 9 8 10 11 12 13 13 14 14 14 14 14 15 15 15 16 16 16 16 16 15 15 16 17 17 17 18 17 17 17 16 16 16 17 16 17 17 17 17 17 17 17 18 18 19 18 19 19 20 20 21 21 21 21 22 22 20 20 20 21 21 22 21 22 23 23 22 22 22 21 20 20 17 15 15 17 22
9 6 4 2 2 2 10 9 8 9 10 11 12 12 13 13 13 13 13 14 15 15 16 16 16 15 17 16 15 16 16 17 17 17 17 17 18 18 17 16 16 17 17 17 18 18 17 17 17 18 18 18 19 18 19 20 21 21 21 21 21 22 22 21 20 18 19 18 19 20 21 22 21 22 21 22 21 22 21 21 21 14 13 21 22
7 6 3 3 2 2 9 9 9 8 11 12 12 12 12 11 12 12 13 14 15 15 15 15 15 16 16 16 16 16 16 16 16 17 17 17 17 17 17 17 17 17 17 18 18 18 18 17 18 18 18 17 18 19 19 20 21 22 22 23 23 22 21 20 18 18 18 17 15 14 17 21 21 20 21 21 21 21 20 21 21 19 15 22 20
7 5 5 3 2 2 8 10 11 8 7 10 11 11 11 11 11 12 12 14 14 15 15 15 15 16 16 16 16 16 15 15 16 17 17 17 16 17 16 17 17 17 17 17 18 18 17 17 18 17 17 18 18 19 19 20 20 21 21 21 21 19 18 17 18 16 16 15 13 14 11 12 16 21 21 20 21 21 19 21 21 22 22 21 22
5 6 5 3 3 4 10 9 9 10 9 10 11 11 11 11 12 12 12 14 15 14 15 15 15 15 16 16 16 15 14 15 15 17 17 17 16 16 16 17 17 17 17 17 17 18 18 18 17 18 18 18 19 19 20 20 20 20 19 18 18 18 17 18 17 16 15 14 12 13 11 12 12 20 21 21 22 20 20 20 21 22 20 21 22
7 6 5 3 2 3 8 11 11 12 12 11 11 12 12 11 13 13 12 13 14 15 15 15 15 15 16 16 15 14 14 14 15 17 17 16 16 16 16 16 17 17 17 18 17 17 17 18 18 18 18 19 19 19 20 20 19 19 19 19 19 19 19 18 17 15 12 10 12 10 12 13 12 13 22 21 22 21 21 22 22 22 21 21 21
8 6 5 4 3 2 9 13 13 15 13 13 12 12 12 12 13 13 12 14 14 14 15 14 14 14 15 15 15 14 14 14 15 16 17 17 16 16 16 16 17 17 17 18 18 18 18 18 18 18 18 18 19 19 19 19 19 19 19 19 20 20 18 17 16 15 12 11 10 11 11 13 12 11 21 21 21 22 22 22 22 23 23 22 22
7 6 6 4 5 4 7 8 10 11 12 13 12 11 12 13 13 13 13 13 13 14 14 13 13 14 15 15 14 14 14 15 15 16 17 17 17 16 16 16 17 17 18 18 18 18 18 18 18 18 18 18 19 19 19 19 19 19 19 20 19 18 17 16 15 13 11 10 11 10 10 12 13 12 20 21 21 21 21 22 22 24 24 23 19
7 7 7 5 5 4 5 6 6 8 8 12 12 12 13 13 13 13 13 13 12 13 14 13 13 14 15 14 14 14 14 15 15 15 16 17 17 16 16 17 17 18 18 18 18 18 18 17 18 18 18 18 18 18 19 19 19 19 20 19 18 18 17 15 13 11 10 8 12 12 14 13 14 13 18 21 22 22 21 18 19 22 24 20 19
7 6 7 5 4 6 6 8 9 9 10 9 12 12 13 13 14 13 13 13 13 13 13 13 13 14 14 14 14 14 14 14 15 15 16 16 16 16 17 17 17 17 18 19 19 18 18 18 18 18 18 18 18 18 19 19 19 19 20 19 18 17 16 14 11 10 8 9 11 15 12 13 14 14 18 21 22 23 17 16 16 17 18 20 23
8 6 6 5 6 6 7 9 8 8 9 9 9 12 12 12 14 14 13 13 13 13 13 12 13 13 14 14 14 14 14 14 15 15 16 16 16 16 17 17 17 17 17 18 18 18 18 18 18 18 18 18 18 19 19 19 20 19 19 18 18 17 16 13 9 8 8 9 9 9 12 15 14 14 20 21 22 22 16 18 19 20 22 23 24
8 7 6 5 6 5 6 8 8 8 8 7 10 11 12 12 12 14 13 13 13 13 13 13 13 13 14 14 14 14 14 14 15 15 16 16 16 16 16 17 17 18 18 18 18 19 19 19 18 18 18 18 18 19 19 20 19 19 18 18 18 17 15 13 8 7 8 8 8 7 11 16 15 16 21 21 21 22 20 22 22 22 21 22 23
8 7 6 6 5 6 4 7 9 7 8 8 11 11 10 12 12 12 13 13 13 13 14 13 12 12 13 13 14 14 13 14 15 15 16 16 16 16 16 17 17 18 18 19 18 19 19 19 19 18 18 19 19 20 20 19 18 18 18 18 17 16 14 11 7 7 7 7 7 7 9 13 14 18 19 20 20 21 22 21 22 22 22 22 22
9 7 6 6 6 6 6 4 8 8 8 7 9 10 11 11 12 12 12 12 12 12 12 13 13 13 13 13 13 13 13 14 15 15 16 16 16 16 16 17 17 18 18 18 19 19 19 19 18 19 19 19 19 20 20 19 19 18 18 17 16 15 11 8 7 7 7 7 7 7 12 12 13 16 17 19 19 19 19 19 20 20 20 20 20
10 8 6 6 5 6 6 5 3 3 5 5 4 8 10 10 12 12 12 12 11 11 11 13 13 13 12 12 13 14 13 13 15 15 15 16 16 16 16 17 17 18 18 19 18 18 19 19 19 18 19 19 19 19 19 19 19 18 18 17 16 14 11 7 6 7 7 6 6 7 9 13 19 21 18 19 20 20 20 19 19 20 21 21 21
8 7 6 6 5 6 5 5 6 5 3 5 6 6 9 9 9 10 12 11 11 11 10 12 13 12 12 12 12 13 14 13 14 15 16 16 16 16 17 17 17 17 18 18 18 18 18 19 19 19 19 19 19 19 19 19 18 18 17 16 15 15 12 9 7 7 6 6 6 6 10 13 20 21 22 21 21 20 20 20 21 21 22 22 22
5 7 6 6 6 6 6 6 8 10 6 4 7 5 7 7 8 9 10 10 10 11 11 11 12 12 12 12 11 12 12 13 15 15 16 16 16 17 17 17 18 17 18 18 18 19 19 20 20 20 20 20 20 19 19 19 18 17 17 16 16 15 12 11 7 7 8 7 5 8 12 12 17 20 22 22 24 23 23 23 23 23 23 22 21
8 5 6 5 6 5 6 4 6 7 7 5 6 2 2 8 8 7 7 9 9 10 10 10 11 10 10 9 9 11 11 12 14 16 16 16 16 17 17 17 17 17 17 18 18 19 20 20 20 20 20 20 20 19 19 18 18 17 17 16 16 15 11 13 7 7 8 8 8 10 11 16 19 20 20 22 22 23 24 24 24 23 24 23 22
6 5 5 4 3 5 4 3 5 7 6 5 5 7 5 7 7 7 7 9 10 9 9 9 10 10 10 10 10 12 11 12 13 13 13 14 14 14 16 17 17 17 17 18 18 19 19 20 20 20 20 20 20 19 19 19 18 18 17 16 15 12 14 10 8 8 8 8 9 12 12 18 20 20 21 22 23 23 22 23 23 23 23 23 23
3 5 4 3 3 3 3 4 4 6 5 4 5 4 6 7 4 7 6 7 9 10 10 9 10 11 10 11 11 11 10 10 13 11 13 13 13 12 13 15 17 17 18 18 18 18 19 19 19 19 19 19 20 19 19 19 18 17 17 16 13 14 9 7 9 8 6 7 10 12 14 19 21 21 22 23 23 23 23 23 23 24 23 23 23
2 3 4 3 3 4 2 3 2 3 5 6 4 4 5 7 4 6 5 6 7 10 10 11 11 10 10 10 10 9 8 6 8 7 10 9 12 13 14 15 16 16 17 18 19 19 19 19 19 19 19 19 18 19 18 18 18 17 16 14 13 9 7 8 8 8 7 6 9 11 14 17 21 22 21 21 23 23 23 23 23 22 22 23 23
4 3 2 1 3 4 2 3 3 1 5 5 5 4 5 5 4 4 4 4 4 7 8 7 8 8 10 9 7 7 7 7 6 7 6 9 10 12 12 13 15 14 16 18 18 18 19 19 19 18 18 17 14 9 10 14 17 16 14 13 10 7 8 8 9 8 8 8 6 10 14 17 19 20 20 20 20 20 21 21 22 23 23 22 22
5 4 2 1 3 3 3 4 2 1 3 6 5 5 6 3 4 4 5 5 5 7 7 7 7 8 8 8 7 7 7 7 6 6 6 10 11 11 12 13 12 13 15 17 17 18 19 19 19 17 17 15 9 7 7 6 8 13 13 10 8 8 8 9 8 8 9 9 9 14 17 19 19 21 20 21 21 21 21 21 21 22 22 22 21
6 5 3 0 0 3 4 3 2 1 2 0 4 6 6 5 4 4 4 5 5 5 6 7 7 8 8 7 7 7 7 7 7 11 9 7 9 12 14 14 13 13 14 9 12 15 17 18 17 15 11 6 7 7 7 7 7 7 7 8 8 8 9 8 8 8 8 11 11 20 16 20 20 21 21 21 22 21 22 22 22 22 23 24 24
4 3 0 2 0 3 3 3 2 0 0 1 2 6 7 5 4 4 4 5 6 6 6 6 6 8 8 7 8 7 7 7 7 6 6 6 6 7 7 6 6 7 11 8 7 7 7 8 8 8 7 7 8 7 7 8 7 7 8 7 8 8 8 8 8 8 8 9 13 20 17 20 21 21 20 21 22 22 22 24 24 23 24 24 25
3 5 5 4 2 3 3 1 1 0 1 1 2 4 8 8 6 5 6 6 7 7 6 6 6 7 8 8 8 8 7 7 7 7 7 6 6 7 5 6 6 6 7 7 6 7 7 7 7 7 7 7 8 8 7 7 8 8 8 8 8 8 8 8 8 8 8 9 12 20 19 18 21 22 21 21 22 23 22 22 25 25 24 25 26
5 6 4 3 2 3 3 1 1 1 1 0 2 2 4 6 6 5 6 6 6 6 6 7 7 7 7 8 8 8 7 7 7 8 8 6 5 6 5 5 6 6 5 7 7 7 7 7 7 8 7 9 9 9 9 9 8 9 9 9 8 9 8 8 8 7 7 8 12 20 19 18 21 22 21 20 19 21 22 22 23 22 24 25 25
4 6 4 3 2 4 2 2 2 1 1 0 2 2 2 4 5 8 6 5 6 6 6 6 6 7 8 8 7 8 7 8 8 8 8 6 6 7 5 5 5 5 5 7 7 6 7 7 8 8 9 8 9 9 9 9 8 8 9 9 8 8 8 8 8 8 7 8 9 15 19 19 20 20 21 21 21 21 21 23 23 24 23 22 23
9 7 5 4 4 3 2 3 2 3 1 1 2 2 2 4 4 5 8 6 5 5 6 6 7 7 7 8 8 8 7 7 7 8 8 7 7 7 7 6 5 6 6 5 7 7 7 7 8 8 7 9 8 8 9 8 8 8 8 9 9 8 8 8 7 7 7 7 8 12 19 20 20 21 21 22 23 22 22 22 23 24 24 24 23
10 6 5 6 3 2 4 4 3 2 2 2 3 3 3 4 4 5 5 10 7 5 6 6 6 7 7 9 9 7 7 6 6 6 8 8 8 8 7 7 7 5 6 7 5 7 7 7 8 8 8 8 9 8 8 9 9 8 8 9 8 8 7 7 7 7 7 7 7 9 18 19 20 22 22 22 22 22 21 21 21 22 22 21 21
5 8 6 5 4 3 4 3 2 2 2 2 3 3 3 5 4 4 4 8 8 8 6 5 8 6 6 8 9 9 7 6 6 5 5 8 8 8 7 7 7 6 5 6 5 6 6 7 8 8 7 8 9 7 8 10 9 8 7 8 8 7 8 7 7 7 8 7 7 7 10 18 20 20 21 22 22 22 22 22 21 20 21 21 21
9 8 6 4 4 5 4 3 2 1 2 4 4 3 4 4 4 4 3 5 8 7 8 6 6 6 5 5 6 7 7 7 7 6 5 7 8 8 8 8 8 5 6 6 6 7 7 6 7 8 8 8 9 8 8 9 9 8 7 9 7 8 7 7 7 8 7 7 7 7 7 8 17 20 21 22 22 22 22 22 22 20 21 21 21
5 5 6 5 6 5 5 5 3 3 4 5 5 5 6 5 5 4 3 3 7 6 5 5 4 6 6 8 6 7 7 7 7 7 8 5 8 8 7 7 7 7 6 7 8 9 9 9 8 9 8 8 9 9 8 9 9 8 7 7 7 8 7 7 7 7 7 7 7 7 7 7 8 14 19 20 21 21 22 22 22 22 21 21 21
6 5 4 6 4 4 4 3 4 5 6 6 6 6 6 5 4 4 4 2 5 6 7 5 5 5 6 8 7 8 8 7 7 7 5 7 7 7 8 7 6 8 9 7 8 9 9 10 9 8 8 8 8 8 8 9 8 7 7 7 7 7 6 7 7 7 6 7 6 7 6 6 7 7 8 16 20 20 22 22 22 22 21 21 21
5 6 8 6 5 5 4 3 5 6 7 8 8 7 6 5 5 5 5 4 5 5 4 6 7 6 7 7 7 6 8 9 9 9 8 7 8 7 6 6 7 8 8 7 9 9 9 10 9 9 7 8 9 7 8 9 8 8 7 6 6 6 6 7 6 7 7 6 7 7 7 6 6 6 6 7 11 19 21 22 22 22 22 21 21
9 8 6 6 5 5 5 5 6 8 8 9 8 8 8 6 5 6 6 3 4 5 5 6 5 6 6 7 8 7 7 6 8 8 8 9 7 7 7 7 7 7 7 8 9 10 10 9 7 10 10 9 10 8 7 9 8 8 6 6 6 5 6 6 7 7 6 6 7 7 6 6 6 6 6 7 7 11 20 20 21 22 22 21 21
7 7 8 7 6 5 5 6 8 8 9 9 7 6 6 6 5 8 5 4 5 4 3 3 3 6 6 7 7 7 6 6 6 7 8 9 8 8 8 9 7 7 8 7 8 9 10 10 8 6 9 11 10 10 8 8 8 7 6 7 5 5 6 6 6 6 5 7 7 6 6 7 6 6 6 6 6 6 13 19 19 21 21 21 21
7 7 7 7 7 5 5 5 6 6 7 6 7 7 6 4 1 5 7 5 4 4 3 3 0 4 6 6 7 7 7 7 5 5 6 7 9 9 8 10 7 7 8 7 8 7 8 11 9 5 5 10 10 10 10 8 7 6 7 7 6 6 6 6 6 5 6 7 6 6 6 5 6 6 6 6 6 6 6 11 16 17 20 20 20
7 8 7 6 5 5 4 5 7 6 6 6 6 6 6 5 3 4 8 6 4 4 4 4 2 3 7 6 6 6 7 7 6 7 7 7 8 7 7 7 6 6 9 9 8 7 8 8 12 9 5 4 9 9 10 9 7 7 7 7 6 7 6 6 5 6 6 6 6 5 4 5 6 6 6 6 6 7 8 7 7 7 10 19 18
8 9 9 8 8 6 4 5 7 7 6 6 7 5 6 6 6 4 6 5 3 4 4 3 1 2 6 7 7 6 5 5 5 6 8 7 7 7 8 6 6 8 8 9 9 8 11 12 12 13 10 7 6 9 10 10 9 9 8 7 7 6 8 6 7 6 5 5 4 4 5 5 6 6 7 6 6 7 7 7 6 6 6 11 17
8 9 9 10 10 9 8 10 7 8 8 7 7 8 8 6 3 5 6 4 4 4 5 3 1 2 2 4 7 8 7 5 5 5 9 7 6 7 8 6 6 7 9 9 12 8 9 12 10 6 14 12 7 6 6 8 11 8 6 7 7 6 6 6 7 6 5 4 4 5 5 6 6 6 5 5 6 6 6 6 5 6 6 5 8
12 11 11 12 11 11 12 9 8 9 8 8 8 7 8 7 6 6 4 4 4 4 5 2 3 2 1 3 5 7 10 8 6 5 6 9 9 7 7 8 8 6 5 8 9 10 11 10 11 9 2 12 9 8 8 6 4 7 9 6 6 5 4 6 7 7 5 5 4 5 4 5 6 5 4 4 5 6 5 5 6 6 6 6 6
11 13 10 11 12 11 11 10 8 9 8 8 9 8 3 2 3 5 8 6 3 2 3 3 2 2 1 1 3 7 8 7 8 6 6 7 8 9 6 8 8 9 8 7 9 9 8 11 12 13 8 3 7 1 3 3 6 4 6 8 4 3 2 4 5 6 5 4 3 5 4 5 5 4 3 4 4 5 5 5 6 6 6 7 6
11 11 12 14 10 10 10 11 9 8 8 8 6 4 5 6 7 7 6 4 4 3 4 4 3 3 2 1 2 4 7 7 7 8 5 6 9 10 7 7 8 8 8 10 9 9 8 8 8 14 14 11 6 5 1 2 6 11 5 1 3 2 4 3 3 3 3 5 5 4 3 4 4 3 2 4 4 4 4 4 6 6 6 6 5
10 12 11 12 9 12 11 11 9 10 8 8 7 7 7 7 7 7 6 8 6 4 4 4 2 3 2 3 3 2 5 8 7 8 6 8 7 6 7 8 8 9 7 9 10 11 11 9 15 11 13 13 9 4 2 2 5 5 5 6 3 3 3 4 5 3 2 3 4 3 3 3 3 3 3 4 3 3 3 4 5 6 6 6 5
12 12 10 9 11 12 12 12 9 9 10 10 9 8 7 9 9 10 9 7 7 6 10 9 7 7 6 3 3 4 4 8 6 6 6 6 8 8 8 10 10 8 8 8 9 8 9 10 12 11 10 8 12 8 5 1 2 1 2 2 0 3 7 5 3 4 2 2 2 2 2 2 1 3 3 3 3 3 3 4 4 5 5 5 4
13 9 8 9 10 11 13 13 11 9 8 11 9 8 10 11 14 13 11 12 11 7 5 6 7 4 4 5 3 4 4 6 8 5 5 6 7 7 7 7 9 8 7 8 9 10 9 10 8 8 8 8 8 9 10 7 3 2 2 2 3 1 8 10 5 6 5 3 3 1 1 0 1 2 3 2 3 3 3 3 5 5 5 4 4
9 9 9 8 12 12 13 14 10 9 8 10 13 9 12 11 10 9 9 11 11 11 10 7 5 4 6 5 4 4 5 3 7 5 5 6 7 7 7 7 9 8 8 8 10 10 7 6 7 6 7 8 8 9 9 8 10 4 1 3 4 5 4 3 8 7 6 9 6 0 1 2 1 1 2 2 3 3 4 3 4 4 3 3 3
10 11 11 11 11 11 12 12 12 11 10 11 12 11 10 11 10 8 8 6 6 6 6 5 5 5 6 4 4 4 4 4 5 5 5 7 7 8 8 7 8 9 8 7 8 11 12 12 9 8 9 8 7 7 9 10 7 7 6 2 3 3 3 3 3 3 5 6 5 7 6 3 2 2 2 1 1 1 3 3 3 3 3 3 4
9 10 10 10 11 11 12 14 13 11 11 14 12 10 9 8 8 11 11 9 7 6 4 6 5 5 6 5 4 4 4 4 5 5 5 6 6 7 7 9 10 9 7 9 10 10 10 10 10 10 9 10 4 8 9 9 6 7 7 7 5 3 3 3 2 4 3 2 7 9 7 8 6 3 2 2 2 2 2 3 3 2 2 3 3
9 10 11 11 11 12 14 16 14 10 9 12 14 13 11 10 11 11 11 11 11 11 8 6 4 5 5 6 6 4 4 4 4 4 4 5 6 5 6 7 8 8 9 9 9 10 9 9 8 8 9 10 8 7 6 7 7 8 6 7 8 9 7 6 7 4 4 4 4 4 3 2 2 4 2 1 1 2 3 2 2 2 2 3 3
Wind_Direction
196 189 195 241 210 151 127 119 115 116 114 117 113 110 105 104 102 102 101 100 100 100 96 93 92 92 89 83 79 74 70 67 66 65 64 65 66 66 67 72 73 74 74 74 74 74 75 76 77 77 75 74 76 75 71 72 71 69 68 67 65 64 64 61 56 51 46 49 53 55 58 56 55 55 55 54 52 50 48 45 43 47 46 45 43
172 190 190 211 218 115 128 116 119 132 126 123 119 112 108 106 104 101 101 102 101 96 92 93 92 91 88 85 78 73 69 68 67 67 65 64 67 67 67 71 74 75 76 76 75 75 76 79 80 78 76 77 78 78 73 73 73 72 71 70 69 66 65 62 56 53 52 52 52 52 55 56 56 57 57 57 55 53 50 49 47 48 47 45 46
145 165 174 182 198 128 133 130 130 131 126 120 115 110 108 103 103 106 106 101 95 94 95 94 94 92 89 85 78 72 69 68 67 66 67 66 66 67 69 71 72 74 76 77 78 78 79 82 82 80 80 80 80 78 73 72 74 74 73 70 69 69 66 62 56 57 57 55 53 51 57 59 57 59 59 58 58 56 53 53 52 51 50 49 48
144 158 161 160 184 157 136 139 137 123 121 127 119 117 116 114 108 104 101 99 95 93 92 90 90 89 88 85 79 74 71 69 67 67 67 67 68 70 71 71 73 74 77 79 80 82 83 84 83 83 85 86 85 83 78 75 75 75 74 72 71 68 65 62 61 59 59 57 51 57 58 59 58 58 60 60 59 57 56 56 55 54 53 52 52
139 152 156 161 174 154 148 138 130 126 142 138 126 120 115 114 110 106 103 101 98 96 94 92 91 92 91 89 84 79 75 72 70 69 69 69 69 71 73 75 75 75 77 80 83 85 87 86 85 86 86 86 86 85 84 81 79 77 76 74 72 70 66 66 64 60 56 55 53 63 62 61 60 59 61 61 59 58 57 57 58 56 54 53 53
150 149 152 164 167 142 146 145 152 155 153 134 130 126 126 120 110 103 103 103 101 100 98 96 93 91 92 91 88 82 77 73 72 71 70 69 70 72 73 75 77 78 80 82 84 87 89 88 89 91 91 89 87 86 84 83 81 79 77 75 75 72 70 67 64 59 55 52 52 65 65 63 61 60 60 60 61 59 59 58 58 57 55 53 53
148 150 148 155 167 184 167 157 159 149 147 137 135 130 122 116 112 109 109 107 103 102 101 100 101 98 97 94 90 85 79 74 71 71 70 69 70 73 74 75 76 79 82 84 85 87 87 89 92 93 91 87 85 85 85 85 83 80 78 77 75 73 70 66 61 57 46 58 60 62 67 64 64 64 61 61 61 60 58 60 60 58 57 55 53
145 151 154 156 160 173 163 154 148 141 136 135 133 130 123 119 114 113 113 110 110 109 108 107 106 104 100 97 93 88 80 73 71 69 70 70 72 74 74 76 78 80 83 84 85 87 87 89 92 92 90 88 88 88 88 85 82 81 79 78 75 71 67 63 59 53 43 60 61 61 63 67 68 65 61 61 62 60 59 61 62 59 59 58 55
154 154 153 150 146 138 136 128 133 128 132 136 133 133 128 122 116 116 117 114 113 113 110 111 113 110 104 99 96 88 81 75 70 69 70 70 72 74 75 75 78 82 84 85 85 85 86 89 89 89 89 89 89 89 87 84 81 81 80 76 73 69 64 59 52 47 57 54 67 68 69 70 69 69 65 62 63 61 61 58 62 60 58 55 57
158 152 145 147 140 142 128 136 138 139 142 144 136 136 131 125 121 120 119 119 118 117 118 118 114 110 106 102 97 89 82 77 72 71 70 71 73 74 74 75 78 82 84 85 86 87 89 90 90 89 88 87 86 85 84 83 81 78 77 73 70 65 59 54 47 46 54 54 62 70 64 66 69 67 67 65 62 63 68 62 56 60 58 54 54
159 152 146 150 151 148 144 133 139 147 144 142 142 132 131 129 125 124 123 123 123 123 121 119 116 113 107 105 99 90 84 78 74 71 70 70 72 74 75 75 78 81 83 84 85 86 89 90 89 89 89 88 87 86 84 81 78 75 71 69 64 60 55 47 40 49 44 48 54 59 67 72 68 67 67 63 62 62 65 66 61 57 58 56 53
162 153 143 148 137 153 152 135 146 144 139 160 144 137 137 133 131 132 132 132 132 128 124 121 117 113 110 107 101 94 86 81 77 74 72 71 72 73 74 76 79 83 83 84 85 86 87 88 87 87 86 84 83 81 78 75 73 71 69 65 62 58 51 43 43 46 42 42 45 48 62 67 65 66 68 67 63 59 59 61 61 60 57 58 57
159 162 139 143 153 171 153 150 151 156 153 163 152 143 142 139 138 137 137 136 133 131 128 124 119 116 111 107 103 96 88 82 77 76 73 73 75 75 75 76 78 81 83 82 82 83 85 86 87 84 81 80 78 75 73 73 72 69 67 64 62 59 55 43 46 45 46 40 45 46 66 71 68 66 67 68 68 66 61 61 60 59 56 55 59
165 157 147 146 159 176 177 176 158 170 161 165 150 145 146 146 143 142 139 136 133 133 130 123 119 117 113 108 106 100 90 82 78 77 75 74 76 78 78 79 79 80 80 80 81 82 84 85 83 80 78 80 79 77 73 73 71 69 66 64 61 57 47 49 43 46 43 39 41 40 68 69 67 66 65 64 65 65 66 67 62 61 59 57 60
163 172 146 151 153 173 175 156 118 142 159 128 132 146 148 152 145 143 141 137 134 132 129 122 119 118 117 113 109 105 95 85 80 77 76 74 76 78 80 81 82 82 81 81 81 81 83 81 80 79 78 78 80 78 75 73 71 67 64 62 59 54 43 54 41 43 39 31 33 37 57 62 59 56 62 68 64 62 62 62 62 61 58 56 65
144 163 139 156 146 146 161 159 133 71 58 139 156 162 157 155 143 146 142 141 136 131 129 124 121 122 121 118 113 108 102 92 84 80 79 77 77 79 81 83 83 83 83 84 83 83 82 80 79 78 78 78 78 77 75 72 69 66 64 62 58 53 42 44 48 41 42 36 32 33 51 58 62 63 67 66 67 65 61 60 58 58 60 61 68
158 142 153 151 151 154 152 165 150 158 174 220 146 161 152 141 145 146 147 145 139 134 135 129 127 127 126 124 114 106 106 99 89 85 83 82 81 82 83 84 84 84 84 84 84 83 82 80 79 79 79 79 79 78 76 72 70 68 64 61 57 52 44 46 47 40 43 36 30 51 57 56 51 57 58 62 64 64 65 63 62 63 63 63 63
165 154 149 144 159 157 163 153 152 165 176 144 129 170 189 137 143 138 145 143 142 137 136 133 130 125 120 112 103 107 106 99 93 90 88 86 86 85 86 87 86 86 86 86 86 86 85 83 82 81 81 80 79 78 75 73 71 67 64 59 56 52 43 49 44 41 42 42 46 58 61 56 53 54 56 54 54 53 54 55 56 59 61 60 62
138 146 159 148 143 148 154 147 169 161 168 172 145 203 200 138 147 145 143 147 145 137 133 131 124 119 116 109 101 105 102 92 90 92 91 87 86 87 89 89 88 88 88 88 88 88 88 87 85 84 81 80 78 76 74 73 70 68 63 58 53 49 48 47 40 37 34 42 49 63 64 62 61 61 59 57 56 55 54 54 53 52 55 59 57
73 120 123 97 96 97 156 182 166 148 160 162 163 165 172 142 148 153 146 142 143 139 132 123 114 111 103 98 99 102 100 97 95 96 97 95 91 91 89 91 91 91 90 91 92 93 92 90 88 85 82 79 77 76 75 74 71 67 63 59 51 53 48 43 38 34 31 42 59 67 62 66 66 64 63 61 60 59 58 56 55 53 51 51 53
74 84 122 140 73 106 88 119 133 159 166 160 145 153 157 145 141 138 142 130 141 143 128 109 106 106 110 106 107 112 114 104 98 99 98 97 96 95 93 92 93 93 94 95 96 96 95 92 89 86 83 80 77 74 73 72 70 67 64 59 58 55 46 44 41 37 32 15 61 69 65 65 65 65 64 63 62 60 59 59 56 54 53 51 50
158 146 125 187 111 90 96 79 88 334 195 170 159 152 152 160 141 139 137 125 124 125 116 124 119 122 118 120 122 122 122 117 107 105 102 102 100 100 100 98 97 96 98 100 101 100 99 97 94 90 87 84 78 75 72 67 65 66 62 58 60 52 44 45 43 41 30 31 38 56 60 63 63 63 63 62 63 62 60 59 57 56 55 53 52
174 170 183 176 118 114 62 75 39 72 295 169 153 152 153 138 139 136 151 141 148 131 128 131 131 132 133 131 130 131 129 128 122 111 109 109 105 99 95 92 86 91 97 101 102 100 99 98 95 91 86 82 78 76 73 71 68 63 62 58 56 52 49 45 45 39 36 27 34 38 58 61 62 63 62 61 62 62 59 57 58 58 55 51 50
170 178 187 109 204 122 106 79 64 39 267 133 174 158 165 157 136 155 152 151 149 133 134 131 134 136 137 137 136 132 131 131 119 118 116 111 108 103 101 98 95 92 90 82 82 85 89 88 88 88 85 76 79 78 78 72 69 63 61 60 58 51 49 45 44 41 38 32 32 22 53 62 61 63 62 63 63 62 62 60 59 59 58 56 57
147 123 191 130 334 71 72 75 25 308 40 284 226 187 167 151 156 155 159 148 147 140 139 138 140 145 141 143 142 138 137 139 140 131 125 124 122 123 118 112 109 103 103 94 95 87 80 83 81 75 78 83 80 74 76 77 73 68 63 59 59 53 52 45 43 43 36 34 30 28 33 59 59 61 63 62 61 62 64 64 61 61 63 61 60
153 171 178 169 152 61 61 19 318 168 107 307 267 213 159 155 153 156 162 152 152 147 144 144 146 152 148 144 142 143 145 145 146 135 133 135 132 130 120 117 114 110 107 101 101 98 93 93 89 85 80 79 78 76 68 72 75 71 68 62 60 58 55 48 44 43 37 35 29 31 32 56 61 60 60 62 64 63 65 67 67 61 63 63 59
185 191 157 156 133 91 111 179 258 340 359 36 269 260 160 151 152 162 164 158 149 147 154 151 155 159 151 148 150 155 153 154 150 146 145 140 137 130 126 118 117 113 113 112 107 107 106 100 94 90 91 85 81 79 74 69 69 77 74 66 64 64 60 54 49 46 40 39 35 26 38 52 62 62 62 63 65 65 61 60 63 61 58 60 61
170 199 185 175 175 162 145 175 193 211 205 171 269 259 198 157 167 159 166 165 152 160 155 155 155 159 159 161 153 159 159 161 158 156 150 143 139 133 122 116 116 112 116 115 115 110 107 104 104 99 95 88 87 83 81 76 72 73 75 70 68 67 64 62 58 50 46 44 40 28 40 53 61 63 62 62 61 61 61 59 60 61 59 56 56
204 205 192 190 197 169 154 186 205 211 185 200 244 220 212 181 174 190 157 159 157 164 154 153 159 163 166 159 156 159 166 165 165 159 152 144 142 139 131 126 126 123 120 112 121 119 114 117 111 109 105 102 96 91 87 81 78 72 78 77 72 70 66 65 62 57 51 49 43 32 39 47 65 65 64 61 58 59 61 61 60 59 58 57 56
206 193 189 205 200 178 173 188 206 220 209 206 221 203 201 220 200 209 194 164 166 159 153 161 167 164 172 163 160 158 166 167 171 159 159 153 147 139 134 135 135 130 131 130 132 124 127 120 113 113 112 105 101 99 97 89 80 76 78 81 74 71 69 66 60 58 58 52 44 39 33 42 51 65 65 64 61 61 60 58 61 61 61 60 57
180 205 198 199 191 175 202 190 192 216 241 233 227 217 193 213 222 195 221 166 157 158 160 184 161 171 177 166 163 159 159 167 172 162 169 152 144 138 139 138 139 139 135 125 124 121 120 119 124 118 116 111 107 108 102 96 89 83 77 79 78 75 70 64 63 58 56 50 51 45 36 37 42 48 56 57 57 58 58 57 57 59 59 58 58
193 203 191 186 178 196 194 191 213 267 248 228 222 221 214 196 161 172 205 169 153 163 162 171 165 154 166 160 156 162 164 168 170 161 154 145 140 140 143 143 146 139 134 130 119 111 103 89 91 100 104 107 109 105 98 98 91 86 81 76 73 72 68 65 63 59 58 54 50 47 46 36 39 42 46 52 56 57 59 58 57 57 59 56 55
211 190 190 178 192 186 188 200 181 227 234 230 210 206 199 181 164 161 133 203 150 148 156 158 160 150 177 154 158 159 164 167 158 159 155 150 146 139 138 141 142 138 126 119 115 113 110 111 110 111 103 101 102 99 94 89 88 83 79 73 74 70 66 66 65 60 57 55 51 49 49 42 42 38 39 46 51 55 58 58 58 57 56 56 55
181 192 175 192 189 183 176 176 202 228 228 231 207 193 180 181 153 151 131 184 141 156 162 156 147 153 167 155 157 160 165 163 154 150 145 137 137 128 134 135 138 136 130 130 120 124 122 123 124 112 109 107 98 102 101 94 89 85 77 71 71 73 71 68 63 62 61 58 55 52 49 48 45 47 37 40 44 50 54 56 56 55 54 52 51
176 190 191 187 184 186 177 185 195 227 223 222 206 182 155 173 159 143 144 176 150 137 157 150 160 165 153 153 156 154 158 163 162 156 154 141 132 132 125 134 135 135 131 137 126 127 127 126 132 116 114 104 99 96 96 96 96 87 78 75 74 76 72 72 67 63 60 60 57 52 49 48 48 47 39 45 39 43 49 52 52 52 51 50 47
196 184 181 178 182 188 187 198 216 227 221 209 196 170 164 165 178 138 129 164 141 144 154 160 157 158 148 141 150 150 140 150 161 151 146 147 136 132 138 138 134 126 125 130 129 131 128 121 125 126 121 110 107 97 91 96 90 85 81 76 76 70 75 71 67 67 62 64 62 59 55 53 48 50 45 48 47 42 46 49 50 49 49 48 47
188 184 182 177 185 191 189 205 220 222 212 191 170 135 117 141 173 130 118 132 128 123 91 78 151 150 147 140 146 142 138 130 144 152 149 144 138 129 137 141 138 121 121 130 128 133 133 128 128 126 123 122 112 107 93 90 89 84 78 76 66 69 68 67 70 77 69 68 65 62 61 57 58 53 54 52 50 48 45 47 48 45 43 45 46
194 189 184 181 184 185 190 192 194 191 178 166 165 151 111 89 159 125 106 97 83 93 78 94 271 159 131 140 144 135 130 132 120 109 135 141 140 135 134 141 129 121 115 123 125 130 131 131 116 100 117 122 122 118 109 97 94 94 79 71 66 66 66 66 71 65 68 69 62 59 60 60 57 55 55 57 53 52 47 44 44 42 39 41 43
190 186 179 176 174 186 172 164 168 149 157 147 139 130 108 86 63 60 116 104 74 59 78 91 105 169 119 112 124 120 113 130 131 129 118 131 130 121 125 136 130 121 126 127 125 128 125 125 126 110 71 56 120 118 116 112 102 89 78 67 70 63 66 66 65 64 61 64 75 75 68 62 64 54 55 49 50 47 45 41 38 37 35 38 41
187 182 177 178 187 180 169 160 172 156 146 147 149 147 142 131 124 102 94 92 98 87 64 73 285 187 132 135 132 115 114 117 130 136 129 139 131 135 130 142 142 136 136 137 141 146 139 130 133 122 108 85 65 113 121 114 95 86 84 74 63 66 63 64 64 64 66 65 75 75 72 64 61 57 51 51 51 50 53 51 50 47 42 38 40
191 184 178 187 189 186 172 185 173 163 169 165 171 167 158 137 133 162 140 119 120 112 101 83 179 72 80 147 142 128 120 120 127 144 131 134 134 132 138 139 145 148 151 151 144 130 137 136 130 123 123 118 112 120 139 129 115 89 83 79 72 64 70 68 69 65 62 61 58 67 61 67 62 60 55 60 61 61 63 58 55 51 43 38 33
199 186 188 189 188 185 190 183 171 174 181 179 175 179 172 173 164 164 128 123 133 152 130 158 109 76 130 182 155 133 132 131 129 120 127 131 143 147 152 143 150 146 134 129 129 133 134 130 130 107 69 132 138 167 167 130 101 141 136 115 81 80 80 71 68 56 54 52 54 66 66 73 71 71 72 73 70 66 63 62 58 54 49 45 39
184 191 186 182 187 189 193 184 178 177 181 176 180 181 148 104 146 146 137 105 29 9 65 91 86 83 94 224 163 131 128 130 134 139 142 140 148 148 158 140 143 136 130 130 136 136 149 148 153 136 131 52 118 192 193 293 134 129 108 107 142 122 123 95 88 66 56 53 55 68 68 76 72 74 81 82 78 69 63 61 63 60 56 52 46
190 191 189 188 186 189 190 187 180 179 177 178 166 97 93 92 79 90 82 88 140 103 80 81 83 84 117 257 58 106 126 130 136 142 155 151 156 156 156 146 141 159 147 141 147 143 150 151 148 147 135 139 158 177 261 244 172 146 147 131 152 150 142 176 121 96 76 58 51 62 63 75 86 90 90 79 75 77 72 69 68 66 60 56 52
198 194 188 188 186 189 187 185 178 183 176 156 137 127 115 100 90 85 90 95 85 102 107 89 77 135 195 133 103 99 127 120 133 143 160 161 158 149 163 148 146 154 162 141 156 162 163 162 156 152 162 148 156 142 176 214 204 333 140 131 112 208 216 131 140 106 121 98 49 47 62 68 89 87 84 83 88 89 93 80 76 69 62 59 51
203 199 189 184 182 184 182 182 177 182 178 160 145 151 148 136 141 152 159 158 155 163 176 169 172 181 182 122 120 134 123 113 117 124 145 157 152 154 162 153 147 146 167 156 144 142 160 163 171 161 159 175 147 145 135 35 16 47 344 0 173 171 151 165 159 158 104 75 86 62 35 53 87 91 87 108 118 113 100 94 82 74 65 56 52
206 182 179 182 179 179 184 183 184 179 168 165 156 159 160 166 175 180 174 171 173 192 176 160 174 152 120 146 167 124 105 112 116 124 136 154 138 148 161 171 149 148 151 148 156 165 166 167 161 170 162 142 154 147 159 157 137 66 39 71 92 26 142 143 183 109 155 161 154 153 119 25 90 106 119 132 140 129 115 105 88 80 67 58 51
182 175 180 177 182 181 182 185 179 173 164 170 174 172 175 179 179 189 183 170 179 180 180 163 119 140 139 156 168 114 110 151 113 125 148 143 138 137 157 162 152 149 155 165 159 154 146 139 165 150 143 162 170 154 155 168 171 150 122 106 83 80 69 35 141 160 147 157 169 151 270 247 181 134 147 140 139 129 120 103 96 88 83 69 57
181 182 182 180 178 177 180 180 183 176 173 170 179 185 184 180 178 171 182 173 147 149 145 119 134 152 143 151 132 121 119 127 101 126 160 140 158 156 156 163 151 150 165 149 152 154 161 157 158 156 167 171 176 161 148 174 170 158 142 87 95 85 76 52 108 112 149 151 162 175 166 187 194 143 119 116 109 120 118 116 111 110 102 85 64
185 181 177 174 176 176 180 183 185 180 176 183 186 185 188 179 178 186 177 162 112 110 124 137 147 161 151 137 125 140 134 140 117 126 150 143 145 151 173 167 153 151 156 153 148 153 159 166 162 157 157 157 159 171 169 157 157 147 164 144 141 133 101 121 119 116 48 98 166 181 175 170 171 153 125 126 133 141 133 128 128 128 110 87 70
184 180 179 180 177 178 183 187 185 173 169 181 187 191 190 190 191 189 178 164 161 156 149 146 139 156 161 145 152 150 144 146 132 142 145 135 136 159 177 168 144 151 149 158 170 162 164 158 150 146 159 160 161 156 125 136 138 152 162 172 161 172 166 173 173 180 145 144 112 141 146 195 141 159 162 87 171 160 156 154 154 147 116 91 75